Weather History for Leadville, CO

Change the Weather History Date:

Saturday, October 6, 2012

  Actual Average Record
Temperature  
Mean Temperature 33 °F -  
Max Temperature 43 °F 53 °F 64 °F (1980)
Min Temperature 22 °F 26 °F 16 °F (1989)
Degree Days  
Heating Degree Days 32 25  
Month to date heating degree days 135 147  
Since 1 July heating degree days 1241 1445  
Cooling Degree Days 0 0  
Month to date cooling degree days 0 0  
Year to date cooling degree days 0 0  
Moisture  
Dew Point 6 °F    
Average Humidity 53    
Maximum Humidity 96    
Minimum Humidity 9    
Precipitation  
Precipitation 0.00 in 0.03 in 0.29 in (2011)
Month to date precipitation 0.05 0.18  
Year to date precipitation 9.44 10.21  
Sea Level Pressure  
Sea Level Pressure 29.96 in    
Wind  
Wind Speed 10 mph (WNW)    
Max Wind Speed 21 mph    
Max Gust Speed 31 mph    
Visibility 9 miles    
Events      
T = Trace of Precipitation, MM = Missing Value Source: NWS Daily Summary

Daily Weather History Graph

Daily Weather History Graph

Search for Another Location

Airport:

Trip Planner

Search our weather history database for the weather conditions in past years. The results will help you decide how hot, cold, wet, or windy it might be!

Date:

Astronomy

Oct. 06, 2012 Rise Set
Actual Time 7:06 AM MDT 6:39 PM MDT
Civil Twilight 6:39 AM MDT 7:05 PM MDT
Nautical Twilight 6:08 AM MDT 7:36 PM MDT
Astronomical Twilight 5:37 AM MDT 8:07 PM MDT
Moon 10:59 PM MDT (10/6) 1:01 PM MDT (10/6)
Length of Visible Light 12h 26m
Length of Day
11h 32m
Waning Gibbous, 65% of the Moon is Illuminated
Oct 6
Waning Gibbous
Oct 8
Last Quarter
Oct 15
New
Oct 21
First Quarter
Oct 29
Full

Hourly Weather History & Observations

Time (MDT) Temp. Windchill Dew Point Humidity Pressure Visibility Wind Dir Wind Speed Gust Speed Precip Events Conditions
12:53 AM 34.0 °F 26.6 °F 12.0 °F 40% 29.83 in 10.0 mi West 9.2 mph 20.7 mph N/A   Clear
1:53 AM 33.1 °F 26.1 °F 10.9 °F 40% 29.81 in 10.0 mi WNW 8.1 mph - N/A   Clear
2:53 AM 32.0 °F 28.7 °F 15.1 °F 50% 29.81 in 10.0 mi NNW 3.5 mph - N/A   Mostly Cloudy
3:53 AM 33.1 °F 25.5 °F 9.0 °F 37% 29.80 in 10.0 mi NNW 9.2 mph - N/A   Partly Cloudy
4:53 AM 30.9 °F 21.2 °F 9.0 °F 40% 29.80 in 10.0 mi NW 12.7 mph 21.9 mph N/A   Clear
5:53 AM 28.9 °F 18.2 °F 6.1 °F 38% 29.86 in 10.0 mi NW 13.8 mph 25.3 mph N/A   Clear
6:53 AM 28.0 °F 18.6 °F 6.1 °F 39% 29.89 in 10.0 mi NNW 10.4 mph 18.4 mph N/A   Clear
7:53 AM 27.0 °F 18.7 °F 5.0 °F 39% 29.94 in 10.0 mi NNW 8.1 mph 19.6 mph N/A   Clear
8:53 AM 30.0 °F 24.1 °F 3.0 °F 32% 29.95 in 10.0 mi NNW 5.8 mph - N/A   Clear
9:53 AM 33.1 °F 23.4 °F -0.0 °F 24% 29.94 in 10.0 mi NW 13.8 mph 17.3 mph N/A   Clear
10:53 AM 35.1 °F 25.2 °F -0.9 °F 22% 29.93 in 10.0 mi NW 16.1 mph 27.6 mph N/A   Clear
11:53 AM 37.0 °F 27.7 °F -4.0 °F 17% 29.96 in 10.0 mi West 16.1 mph 23.0 mph N/A   Clear
12:53 PM 37.9 °F 28.2 °F -8.0 °F 14% 29.92 in 10.0 mi West 18.4 mph 27.6 mph N/A   Clear
1:31 PM 39.2 °F 33.0 °F -9.4 °F 12% 30.16 in 10.0 mi WNW 9.2 mph 21.9 mph N/A   Clear
1:53 PM 39.9 °F 31.1 °F -7.1 °F 14% 29.88 in 10.0 mi WNW 17.3 mph 26.5 mph N/A   Clear
2:53 PM 41.0 °F 32.8 °F -9.0 °F 12% 29.87 in 10.0 mi West 16.1 mph 26.5 mph N/A   Clear
3:53 PM 41.0 °F 33.1 °F -14.1 °F 9% 29.86 in 10.0 mi West 15.0 mph 25.3 mph N/A   Clear
4:53 PM 42.1 °F 35.2 °F -11.0 °F 10% 29.86 in 10.0 mi NW 12.7 mph 20.7 mph N/A   Clear
5:53 PM 37.0 °F 30.4 °F -11.0 °F 13% 29.93 in 10.0 mi NNW 9.2 mph - N/A   Clear
6:53 PM 34.0 °F 29.8 °F -8.0 °F 16% 29.96 in 10.0 mi NNW 4.6 mph - N/A   Clear
7:53 PM 28.9 °F 18.2 °F 19.9 °F 69% 30.02 in 10.0 mi South 13.8 mph - N/A   Scattered Clouds
8:53 PM 26.1 °F 17.6 °F 21.0 °F 81% 30.04 in 10.0 mi SSE 8.1 mph - N/A   Scattered Clouds
9:53 PM 24.1 °F 15.2 °F 21.9 °F 91% 30.02 in 10.0 mi South 8.1 mph - N/A   Partly Cloudy
10:12 PM 23.0 °F - 21.2 °F 93% 30.18 in 10.0 mi Calm Calm - N/A   Mostly Cloudy
10:53 PM 23.0 °F 15.8 °F 21.9 °F 96% 30.02 in 4.0 mi SSE 5.8 mph - N/A   Overcast
11:06 PM 23.0 °F - 21.2 °F 93% 30.17 in 2.0 mi Calm Calm - N/A   Overcast
11:23 PM 21.2 °F - 21.2 °F 100% 30.17 in 1.2 mi Calm Calm - N/A   Overcast
11:32 PM 21.2 °F - 21.2 °F 100% 30.17 in 3.0 mi Calm Calm - N/A   Overcast
11:53 PM 23.0 °F 18.4 °F 21.9 °F 96% 29.99 in 6.0 mi SSE 3.5 mph - N/A   Overcast